Terug naar catalogus

SL-12 DEB

LostHEO
NORAD 32024·DEBRIS·🇷🇺 Russia

Gelanceerd Nov 12, 1997 vanaf Baikonur Cosmodrome

Loading…

Volgende Passages (komende 24 uur)

TLE

VerouderdSource: Space-Track

Epoch: Sep 6, 2011, 13:38 UTC

1 32024U 97070J   11249.56855400  .00044873  00000-0  20160-1 0  9990
2 32024  47.0233 330.1695 4591934 227.9394  90.7250  6.19738058 99761

Volg SL-12 DEB in realtime met AllMySat

Download on the App Store